RYR92NU EBCI-LFBZ

Flight info

Callsign RYR92NU
Flight time 1h 42m
Altitude 31000
Route CIV N872 LESDO DCT KOVIN DCT DUCRA UM728 RESMI UN857 DISAK DCT ARKIP DCT ARNAV DCT LMG DCT UVELI DCT OSMOB DCT VAVIX/N0340F190 DCT MAGEC
Aircraft B738/M-SDE3FGILRWY/SB1

Departure

Time 2026-04-23 14:32
Airport Brussels South Charleroi Airport (EBCI)

Arrival

Time 2026-04-23 16:15
Airport Biarritz Pays Basque airport (LFBZ)
Time Latitude Longitude Altitude Speed Heading
2026-04-23 14:08 50.46720 4.46583 613 ft 0 kts 338°
2026-04-23 14:23 50.46700 4.46591 630 ft 4 kts 14°
2026-04-23 14:23 50.46678 4.46573 617 ft 3 kts 31°
2026-04-23 14:23 50.46676 4.46571 616 ft 1 kts 31°
2026-04-23 14:26 50.46680 4.46575 618 ft 2 kts 35°
2026-04-23 14:26 50.46686 4.46643 615 ft 12 kts 97°
2026-04-23 14:26 50.46678 4.46773 617 ft 13 kts 147°
2026-04-23 14:27 50.46599 4.46770 639 ft 13 kts 234°
2026-04-23 14:27 50.46560 4.46643 623 ft 14 kts 246°
2026-04-23 14:27 50.46508 4.46465 619 ft 23 kts 245°
2026-04-23 14:27 50.46441 4.46236 621 ft 23 kts 244°
2026-04-23 14:28 50.46377 4.46013 627 ft 22 kts 246°
2026-04-23 14:28 50.46330 4.45848 623 ft 13 kts 245°
2026-04-23 14:28 50.46284 4.45692 624 ft 21 kts 246°
2026-04-23 14:28 50.46217 4.45458 623 ft 24 kts 246°
2026-04-23 14:29 50.46151 4.45234 633 ft 20 kts 247°
2026-04-23 14:29 50.46096 4.45042 628 ft 19 kts 245°
2026-04-23 14:29 50.46036 4.44838 627 ft 22 kts 247°
2026-04-23 14:29 50.45965 4.44592 633 ft 30 kts 245°
2026-04-23 14:30 50.45859 4.44327 630 ft 28 kts 232°
2026-04-23 14:30 50.45768 4.44141 634 ft 16 kts 233°
2026-04-23 14:30 50.45698 4.44005 637 ft 17 kts 224°
2026-04-23 14:30 50.45632 4.44052 639 ft 10 kts 84°
2026-04-23 14:31 50.45637 4.44078 636 ft 0 kts 69°
2026-04-23 14:31 50.45639 4.44086 635 ft 10 kts 68°
2026-04-23 14:31 50.45775 4.44557 632 ft 83 kts 66°
2026-04-23 14:32 50.46106 4.45698 625 ft 144 kts 65°
2026-04-23 14:32 50.46529 4.47250 1023 ft 163 kts 66°
2026-04-23 14:32 50.46935 4.49082 1458 ft 187 kts 66°
2026-04-23 14:32 50.47703 4.50752 1961 ft 200 kts 35°
2026-04-23 14:33 50.49060 4.51305 2561 ft 211 kts
2026-04-23 14:33 50.50465 4.52160 2758 ft 232 kts 51°
2026-04-23 14:33 50.51230 4.54415 3484 ft 239 kts 64°
2026-04-23 14:33 50.52048 4.56745 4188 ft 247 kts 60°
2026-04-23 14:34 50.53016 4.59044 4971 ft 253 kts 53°
2026-04-23 14:34 50.54424 4.60701 5860 ft 259 kts 24°
2026-04-23 14:34 50.56221 4.61123 6682 ft 269 kts 356°
2026-04-23 14:34 50.58020 4.60206 7414 ft 279 kts 330°
2026-04-23 14:35 50.59429 4.58077 8127 ft 288 kts 303°
2026-04-23 14:35 50.60140 4.55118 8877 ft 294 kts 279°
2026-04-23 14:35 50.60213 4.51875 9576 ft 300 kts 268°
2026-04-23 14:35 50.60088 4.48566 10274 ft 306 kts 266°
2026-04-23 14:36 50.59924 4.45198 10834 ft 315 kts 266°
2026-04-23 14:36 50.59752 4.41634 11004 ft 338 kts 266°
2026-04-23 14:36 50.59581 4.37830 11275 ft 356 kts 266°
2026-04-23 14:36 50.59417 4.33958 11811 ft 363 kts 267°
2026-04-23 14:37 50.59257 4.29996 12611 ft 362 kts 267°
2026-04-23 14:37 50.59101 4.26016 13254 ft 369 kts 267°
2026-04-23 14:37 50.58944 4.21969 13950 ft 373 kts 267°
2026-04-23 14:37 50.58784 4.17828 14681 ft 375 kts 267°
2026-04-23 14:38 50.58627 4.13784 15387 ft 377 kts 267°
2026-04-23 14:38 50.58466 4.09650 16109 ft 379 kts 266°
2026-04-23 14:38 50.58302 4.05490 16759 ft 384 kts 266°
2026-04-23 14:38 50.58134 4.01274 17408 ft 389 kts 266°
2026-04-23 14:39 50.57962 3.96991 17963 ft 395 kts 266°
2026-04-23 14:39 50.57787 3.92665 18702 ft 397 kts 266°
2026-04-23 14:39 50.57456 3.88344 19235 ft 400 kts 253°
2026-04-23 14:39 50.56239 3.84429 19789 ft 401 kts 231°
2026-04-23 14:40 50.54275 3.81350 20342 ft 400 kts 213°
2026-04-23 14:40 50.51834 3.79292 20957 ft 398 kts 202°
2026-04-23 14:40 50.49284 3.77581 21544 ft 401 kts 200°
2026-04-23 14:40 50.46695 3.75895 22032 ft 405 kts 200°
2026-04-23 14:41 50.44082 3.74182 22577 ft 408 kts 200°
2026-04-23 14:41 50.41465 3.72437 23143 ft 410 kts 201°
2026-04-23 14:41 50.38838 3.70658 23686 ft 413 kts 201°
2026-04-23 14:41 50.36123 3.68812 24148 ft 416 kts 200°
2026-04-23 14:42 50.33545 3.67059 24696 ft 415 kts 201°
2026-04-23 14:42 50.30890 3.65262 25144 ft 417 kts 201°
2026-04-23 14:42 50.28214 3.63457 25532 ft 420 kts 200°
2026-04-23 14:42 50.25517 3.61642 25934 ft 423 kts 200°
2026-04-23 14:43 50.22820 3.59826 26481 ft 421 kts 201°
2026-04-23 14:43 50.20179 3.58049 27129 ft 417 kts 201°
2026-04-23 14:43 50.17524 3.56264 27728 ft 414 kts 201°
2026-04-23 14:43 50.14878 3.54487 28244 ft 414 kts 200°
2026-04-23 14:44 50.12236 3.52716 28776 ft 413 kts 200°
2026-04-23 14:44 50.09610 3.50958 29381 ft 410 kts 200°
2026-04-23 14:44 50.06991 3.49206 29954 ft 408 kts 200°
2026-04-23 14:44 50.04385 3.47465 30462 ft 407 kts 200°
2026-04-23 14:45 50.01784 3.45730 30884 ft 406 kts 200°
2026-04-23 14:45 49.99227 3.44026 31287 ft 406 kts 200°
2026-04-23 14:45 49.94030 3.40569 31326 ft 405 kts 200°
2026-04-23 14:46 49.88856 3.37134 31330 ft 404 kts 200°
2026-04-23 14:46 49.83695 3.33715 31331 ft 403 kts 200°
2026-04-23 14:47 49.78533 3.30303 31326 ft 403 kts 199°
2026-04-23 14:47 49.73413 3.26919 31306 ft 403 kts 199°
2026-04-23 14:48 49.68256 3.23513 31318 ft 403 kts 200°
2026-04-23 14:48 49.63103 3.20116 31316 ft 403 kts 199°
2026-04-23 14:49 49.57948 3.16727 31310 ft 403 kts 199°
2026-04-23 14:49 49.52820 3.13363 31312 ft 403 kts 199°
2026-04-23 14:50 49.47710 3.09825 31308 ft 405 kts 207°
2026-04-23 14:50 49.42985 3.05071 31307 ft 406 kts 210°
2026-04-23 14:51 49.38308 3.00213 31299 ft 405 kts 210°
2026-04-23 14:51 49.33631 2.95425 31312 ft 404 kts 209°
2026-04-23 14:52 49.28973 2.90709 31310 ft 403 kts 209°
2026-04-23 14:52 49.24290 2.85990 31314 ft 403 kts 209°
2026-04-23 14:53 49.19611 2.81287 31302 ft 402 kts 208°
2026-04-23 14:53 49.14935 2.76596 31310 ft 402 kts 208°
2026-04-23 14:54 49.10261 2.71917 31312 ft 401 kts 208°
2026-04-23 14:54 49.05623 2.67285 31316 ft 401 kts 208°
2026-04-23 14:55 49.00957 2.62635 31327 ft 401 kts 209°
2026-04-23 14:55 48.96272 2.57977 31319 ft 402 kts 209°
2026-04-23 14:56 48.91587 2.53328 31319 ft 403 kts 209°
2026-04-23 14:56 48.86913 2.48699 31314 ft 403 kts 209°
2026-04-23 14:57 48.82211 2.44050 31292 ft 404 kts 209°
2026-04-23 14:57 48.77505 2.39408 31294 ft 404 kts 209°
2026-04-23 14:58 48.72793 2.34769 31288 ft 403 kts 208°
2026-04-23 14:58 48.68090 2.30151 31297 ft 403 kts 208°
2026-04-23 14:59 48.63423 2.25576 31295 ft 402 kts 208°
2026-04-23 14:59 48.58716 2.20996 31292 ft 402 kts 206°
2026-04-23 15:00 48.53595 2.18005 31281 ft 393 kts 188°
2026-04-23 15:00 48.48237 2.16335 31286 ft 394 kts 188°
2026-04-23 15:01 48.42888 2.14681 31278 ft 396 kts 189°
2026-04-23 15:01 48.37426 2.12928 31289 ft 408 kts 190°
2026-04-23 15:02 48.31817 2.11129 31272 ft 414 kts 190°
2026-04-23 15:02 48.26136 2.10356 31259 ft 405 kts 173°
2026-04-23 15:03 48.20652 2.11600 31272 ft 402 kts 170°
2026-04-23 15:03 48.15027 2.12838 31269 ft 417 kts 173°
2026-04-23 15:04 48.09139 2.12775 31279 ft 429 kts 185°
2026-04-23 15:04 48.03221 2.11540 31259 ft 426 kts 188°
2026-04-23 15:05 47.98397 2.10474 31260 ft 421 kts 188°
2026-04-23 15:05 47.91571 2.09029 31253 ft 431 kts 188°
2026-04-23 15:06 47.85623 2.07880 31251 ft 432 kts 188°
2026-04-23 15:06 47.79661 2.06727 31243 ft 432 kts 188°
2026-04-23 15:07 47.73687 2.05588 31231 ft 434 kts 190°
2026-04-23 15:07 47.67719 2.04443 31241 ft 437 kts 190°
2026-04-23 15:08 47.61736 2.02845 31218 ft 436 kts 203°
2026-04-23 15:09 47.53279 1.97866 31208 ft 438 kts 206°
2026-04-23 15:09 47.48576 1.95069 31218 ft 439 kts 206°
2026-04-23 15:10 47.42889 1.91760 31196 ft 439 kts 206°
2026-04-23 15:10 47.36302 1.87970 31180 ft 436 kts 206°
2026-04-23 15:11 47.31613 1.85275 31212 ft 434 kts 206°
2026-04-23 15:11 47.26003 1.82044 31205 ft 432 kts 206°
2026-04-23 15:12 47.20405 1.78832 31210 ft 431 kts 206°
2026-04-23 15:12 47.14802 1.75665 31196 ft 431 kts 206°
2026-04-23 15:13 47.09229 1.72539 31191 ft 432 kts 206°
2026-04-23 15:13 47.03611 1.69390 31187 ft 433 kts 206°
2026-04-23 15:14 46.97983 1.66239 31182 ft 433 kts 206°
2026-04-23 15:14 46.92346 1.63090 31159 ft 433 kts 206°
2026-04-23 15:15 46.86723 1.59955 31178 ft 432 kts 206°
2026-04-23 15:15 46.81145 1.56853 31183 ft 432 kts 206°
2026-04-23 15:16 46.75535 1.53739 31178 ft 431 kts 206°
2026-04-23 15:16 46.69933 1.50636 31181 ft 430 kts 206°
2026-04-23 15:17 46.64335 1.47542 31174 ft 430 kts 206°
2026-04-23 15:17 46.58762 1.44523 31158 ft 431 kts 205°
2026-04-23 15:18 46.53164 1.41450 31161 ft 430 kts 206°
2026-04-23 15:18 46.47580 1.38342 31160 ft 430 kts 206°
2026-04-23 15:19 46.41980 1.35257 31156 ft 430 kts 206°
2026-04-23 15:19 46.36415 1.32213 31152 ft 431 kts 206°
2026-04-23 15:20 46.30808 1.29156 31144 ft 430 kts 206°
2026-04-23 15:20 46.25208 1.26110 31149 ft 430 kts 206°
2026-04-23 15:21 46.19613 1.23071 31147 ft 430 kts 206°
2026-04-23 15:21 46.14021 1.20042 31139 ft 429 kts 206°
2026-04-23 15:22 46.08488 1.17051 31142 ft 426 kts 205°
2026-04-23 15:22 46.02950 1.14064 31148 ft 424 kts 205°
2026-04-23 15:23 45.97448 1.11102 31150 ft 422 kts 205°
2026-04-23 15:23 45.91961 1.08152 31154 ft 420 kts 205°
2026-04-23 15:24 45.86492 1.05219 31160 ft 420 kts 205°
2026-04-23 15:24 45.81197 1.01938 31150 ft 414 kts 216°
2026-04-23 15:25 45.76719 0.96915 31147 ft 409 kts 225°
2026-04-23 15:25 45.72383 0.91632 31130 ft 410 kts 225°
2026-04-23 15:26 45.68024 0.86370 31130 ft 410 kts 225°
2026-04-23 15:26 45.63672 0.81167 31123 ft 411 kts 225°
2026-04-23 15:27 45.59285 0.75946 31119 ft 410 kts 224°
2026-04-23 15:27 45.54905 0.70748 31110 ft 408 kts 224°
2026-04-23 15:28 45.50547 0.65586 31115 ft 406 kts 224°
2026-04-23 15:28 45.46199 0.60445 31106 ft 405 kts 224°
2026-04-23 15:29 45.41894 0.55365 31109 ft 405 kts 224°
2026-04-23 15:29 45.37556 0.50265 31105 ft 404 kts 224°
2026-04-23 15:30 45.33220 0.45164 31101 ft 405 kts 224°
2026-04-23 15:30 45.28876 0.40065 31094 ft 405 kts 224°
2026-04-23 15:31 45.24522 0.34969 31094 ft 406 kts 224°
2026-04-23 15:31 45.20190 0.29910 31084 ft 406 kts 224°
2026-04-23 15:32 45.15832 0.24830 31016 ft 404 kts 224°
2026-04-23 15:32 45.13680 0.22327 30728 ft 397 kts 224°
2026-04-23 15:32 45.11561 0.19865 30487 ft 391 kts 224°
2026-04-23 15:32 45.09475 0.17442 30240 ft 385 kts 224°
2026-04-23 15:33 45.07423 0.15059 29965 ft 378 kts 224°
2026-04-23 15:33 45.05425 0.12743 29688 ft 374 kts 224°
2026-04-23 15:33 45.03428 0.10430 29406 ft 369 kts 224°
2026-04-23 15:33 45.01454 0.08149 29089 ft 364 kts 224°
2026-04-23 15:34 44.99503 0.05895 28736 ft 361 kts 224°
2026-04-23 15:34 44.97570 0.03663 28388 ft 357 kts 224°
2026-04-23 15:34 44.95652 0.01450 28029 ft 355 kts 224°
2026-04-23 15:34 44.93751 -0.00744 27674 ft 352 kts 224°
2026-04-23 15:35 44.91861 -0.02922 27334 ft 349 kts 224°
2026-04-23 15:35 44.89986 -0.05080 26997 ft 347 kts 224°
2026-04-23 15:35 44.88152 -0.07191 26676 ft 345 kts 224°
2026-04-23 15:35 44.86296 -0.09325 26321 ft 343 kts 224°
2026-04-23 15:36 44.84457 -0.11438 25992 ft 341 kts 224°
2026-04-23 15:36 44.82625 -0.13541 25656 ft 339 kts 224°
2026-04-23 15:36 44.80801 -0.15632 25325 ft 337 kts 224°
2026-04-23 15:36 44.78986 -0.17712 24993 ft 335 kts 224°
2026-04-23 15:37 44.77182 -0.19777 24662 ft 334 kts 224°
2026-04-23 15:37 44.75382 -0.21837 24336 ft 333 kts 224°
2026-04-23 15:37 44.73603 -0.23872 23945 ft 334 kts 224°
2026-04-23 15:37 44.71808 -0.25922 23658 ft 332 kts 224°
2026-04-23 15:38 44.70018 -0.27966 23281 ft 331 kts 224°
2026-04-23 15:38 44.68237 -0.29997 22925 ft 329 kts 223°
2026-04-23 15:38 44.66467 -0.32012 22583 ft 327 kts 223°
2026-04-23 15:38 44.64698 -0.34007 22256 ft 325 kts 221°
2026-04-23 15:39 44.62871 -0.35865 21926 ft 324 kts 219°
2026-04-23 15:39 44.61010 -0.37653 21597 ft 323 kts 218°
2026-04-23 15:39 44.59157 -0.39410 21281 ft 321 kts 218°
2026-04-23 15:39 44.57342 -0.41134 20964 ft 319 kts 218°
2026-04-23 15:40 44.55512 -0.42879 20657 ft 317 kts 217°
2026-04-23 15:40 44.53692 -0.44619 20344 ft 316 kts 218°
2026-04-23 15:40 44.51886 -0.46350 20027 ft 314 kts 218°
2026-04-23 15:40 44.50085 -0.48078 19717 ft 313 kts 218°
2026-04-23 15:41 44.48295 -0.49796 19411 ft 312 kts 217°
2026-04-23 15:41 44.46508 -0.51511 19097 ft 311 kts 218°
2026-04-23 15:41 44.44726 -0.53219 18789 ft 310 kts 217°
2026-04-23 15:41 44.42975 -0.54898 18490 ft 309 kts 218°
2026-04-23 15:42 44.41203 -0.56596 18144 ft 308 kts 218°
2026-04-23 15:42 44.39440 -0.58283 17809 ft 307 kts 217°
2026-04-23 15:42 44.37683 -0.59963 17486 ft 305 kts 218°
2026-04-23 15:42 44.35938 -0.61632 17166 ft 303 kts 218°
2026-04-23 15:43 44.34201 -0.63291 16862 ft 302 kts 218°
2026-04-23 15:43 44.32474 -0.64941 16552 ft 300 kts 218°
2026-04-23 15:43 44.30755 -0.66581 16251 ft 298 kts 218°
2026-04-23 15:43 44.29046 -0.68208 15954 ft 297 kts 216°
2026-04-23 15:44 44.27366 -0.69808 15668 ft 295 kts 217°
2026-04-23 15:44 44.25683 -0.71416 15400 ft 292 kts 217°
2026-04-23 15:44 44.24009 -0.73020 15113 ft 291 kts 218°
2026-04-23 15:44 44.22342 -0.74615 14817 ft 290 kts 216°
2026-04-23 15:45 44.20681 -0.76200 14530 ft 289 kts 217°
2026-04-23 15:45 44.19028 -0.77777 14244 ft 287 kts 217°
2026-04-23 15:45 44.17387 -0.79343 13949 ft 286 kts 217°
2026-04-23 15:45 44.15745 -0.80906 13634 ft 285 kts 217°
2026-04-23 15:46 44.14112 -0.82462 13304 ft 284 kts 216°
2026-04-23 15:46 44.12508 -0.83988 13028 ft 281 kts 216°
2026-04-23 15:46 44.10899 -0.85518 12748 ft 279 kts 217°
2026-04-23 15:46 44.09306 -0.87033 12451 ft 277 kts 216°
2026-04-23 15:47 44.07720 -0.88538 12176 ft 274 kts 216°
2026-04-23 15:47 44.06147 -0.90033 11876 ft 273 kts 216°
2026-04-23 15:47 44.04584 -0.91515 11608 ft 271 kts 216°
2026-04-23 15:47 44.03031 -0.92988 11323 ft 269 kts 216°
2026-04-23 15:48 44.01488 -0.94451 11041 ft 267 kts 215°
2026-04-23 15:48 43.99956 -0.95902 10764 ft 266 kts 214°
2026-04-23 15:48 43.98435 -0.97342 10483 ft 264 kts 214°
2026-04-23 15:48 43.96937 -0.98759 10215 ft 263 kts 214°
2026-04-23 15:49 43.95435 -1.00179 9936 ft 262 kts 214°
2026-04-23 15:49 43.93923 -1.01607 9611 ft 262 kts 213°
2026-04-23 15:49 43.92419 -1.03028 9295 ft 261 kts 213°
2026-04-23 15:49 43.90922 -1.04439 9016 ft 259 kts 213°
2026-04-23 15:50 43.89437 -1.05840 8726 ft 258 kts 213°
2026-04-23 15:50 43.87957 -1.07235 8452 ft 256 kts 213°
2026-04-23 15:50 43.86489 -1.08617 8193 ft 254 kts 212°
2026-04-23 15:50 43.85050 -1.09973 7927 ft 252 kts 212°
2026-04-23 15:51 43.83602 -1.11334 7648 ft 251 kts 212°
2026-04-23 15:51 43.82163 -1.12689 7395 ft 249 kts 212°
2026-04-23 15:51 43.80730 -1.14035 7130 ft 248 kts 213°
2026-04-23 15:51 43.79306 -1.15372 6894 ft 247 kts 213°
2026-04-23 15:52 43.77891 -1.16700 6639 ft 246 kts 213°
2026-04-23 15:52 43.76479 -1.18024 6400 ft 245 kts 213°
2026-04-23 15:52 43.75072 -1.19311 6147 ft 240 kts 207°
2026-04-23 15:52 43.73497 -1.19954 5931 ft 235 kts 188°
2026-04-23 15:53 43.71899 -1.20318 5679 ft 229 kts 189°
2026-04-23 15:53 43.70394 -1.20673 5462 ft 217 kts 189°
2026-04-23 15:53 43.68936 -1.21021 5194 ft 208 kts 189°
2026-04-23 15:53 43.67552 -1.21353 4996 ft 195 kts 189°
2026-04-23 15:54 43.66234 -1.21670 4772 ft 190 kts 189°
2026-04-23 15:54 43.64928 -1.21984 4529 ft 192 kts 189°
2026-04-23 15:54 43.63605 -1.22301 4294 ft 194 kts 189°
2026-04-23 15:54 43.62279 -1.22622 4120 ft 194 kts 187°
2026-04-23 15:55 43.60951 -1.22941 3912 ft 192 kts 186°
2026-04-23 15:55 43.59673 -1.23246 3858 ft 188 kts 188°
2026-04-23 15:55 43.58386 -1.23551 3784 ft 189 kts 188°
2026-04-23 15:55 43.57093 -1.23858 3722 ft 185 kts 187°
2026-04-23 15:56 43.55838 -1.24156 3631 ft 184 kts 186°
2026-04-23 15:56 43.54568 -1.24456 3442 ft 184 kts 187°
2026-04-23 15:56 43.53320 -1.24749 3296 ft 180 kts 184°
2026-04-23 15:56 43.52077 -1.25037 3129 ft 182 kts 187°
2026-04-23 15:57 43.50815 -1.25331 2964 ft 185 kts 186°
2026-04-23 15:57 43.49572 -1.25621 2811 ft 181 kts 185°
2026-04-23 15:57 43.48350 -1.25936 2617 ft 179 kts 193°
2026-04-23 15:57 43.47375 -1.26984 2482 ft 183 kts 244°
2026-04-23 15:58 43.47203 -1.28680 2552 ft 184 kts 269°
2026-04-23 15:58 43.47131 -1.30444 2495 ft 185 kts 266°
2026-04-23 15:58 43.47070 -1.32203 2495 ft 183 kts 268°
2026-04-23 15:58 43.47042 -1.33946 2474 ft 181 kts 269°
2026-04-23 15:59 43.47023 -1.35698 2340 ft 187 kts 269°
2026-04-23 15:59 43.47002 -1.37479 2104 ft 184 kts 269°
2026-04-23 15:59 43.46982 -1.39193 1902 ft 174 kts 269°
2026-04-23 15:59 43.46963 -1.40849 1658 ft 171 kts 268°
2026-04-23 16:00 43.46944 -1.42482 1425 ft 170 kts 270°
2026-04-23 16:00 43.46927 -1.44052 1206 ft 158 kts 271°
2026-04-23 16:00 43.46910 -1.45534 1023 ft 156 kts 270°
2026-04-23 16:00 43.46893 -1.47054 806 ft 160 kts 266°
2026-04-23 16:01 43.46878 -1.48581 633 ft 160 kts 270°
2026-04-23 16:01 43.46870 -1.50093 424 ft 153 kts 270°
2026-04-23 16:01 43.46840 -1.51555 326 ft 155 kts 269°
2026-04-23 16:01 43.46908 -1.53132 986 ft 181 kts 275°
2026-04-23 16:02 43.46985 -1.54952 1673 ft 206 kts 269°
2026-04-23 16:02 43.46964 -1.57067 2064 ft 235 kts 269°
2026-04-23 16:02 43.47324 -1.59268 2617 ft 246 kts 301°
2026-04-23 16:02 43.48563 -1.60882 3416 ft 247 kts 333°
2026-04-23 16:03 43.50225 -1.61394 3808 ft 247 kts
2026-04-23 16:03 43.51961 -1.61382 3995 ft 255 kts
2026-04-23 16:03 43.53833 -1.61345 4025 ft 279 kts
2026-04-23 16:03 43.55791 -1.61326 4006 ft 282 kts 356°
2026-04-23 16:04 43.57656 -1.62098 4006 ft 281 kts 333°
2026-04-23 16:04 43.59512 -1.62888 3962 ft 281 kts
2026-04-23 16:04 43.61346 -1.62179 3988 ft 275 kts 36°
2026-04-23 16:04 43.62552 -1.60225 3988 ft 268 kts 71°
2026-04-23 16:05 43.62796 -1.58550 3982 ft 262 kts 95°
2026-04-23 16:05 43.62429 -1.55271 3837 ft 263 kts 103°
2026-04-23 16:05 43.61938 -1.52870 3576 ft 258 kts 111°
2026-04-23 16:05 43.61340 -1.50590 3321 ft 249 kts 110°
2026-04-23 16:06 43.60751 -1.48385 3074 ft 242 kts 109°
2026-04-23 16:06 43.60182 -1.46217 2824 ft 239 kts 109°
2026-04-23 16:06 43.59629 -1.44072 2585 ft 233 kts 108°
2026-04-23 16:06 43.59112 -1.42059 2538 ft 211 kts 107°
2026-04-23 16:07 43.58651 -1.40241 2474 ft 191 kts 107°
2026-04-23 16:07 43.58232 -1.38567 2506 ft 182 kts 108°
2026-04-23 16:07 43.57823 -1.36927 2487 ft 180 kts 108°
2026-04-23 16:07 43.57423 -1.35330 2499 ft 172 kts 107°
2026-04-23 16:08 43.57045 -1.33814 2477 ft 162 kts 107°
2026-04-23 16:08 43.56676 -1.32335 2511 ft 165 kts 107°
2026-04-23 16:08 43.56301 -1.30830 2482 ft 166 kts 107°
2026-04-23 16:08 43.55927 -1.29333 2486 ft 163 kts 107°
2026-04-23 16:09 43.55562 -1.27878 2493 ft 158 kts 107°
2026-04-23 16:09 43.55206 -1.26458 2495 ft 156 kts 107°
2026-04-23 16:09 43.54662 -1.25155 2485 ft 165 kts 138°
2026-04-23 16:09 43.53541 -1.24715 2484 ft 180 kts 181°
2026-04-23 16:10 43.52301 -1.25002 2504 ft 181 kts 184°
2026-04-23 16:10 43.51081 -1.25281 2489 ft 174 kts 183°
2026-04-23 16:10 43.49888 -1.25556 2512 ft 174 kts 184°
2026-04-23 16:10 43.48706 -1.25829 2507 ft 170 kts 185°
2026-04-23 16:11 43.47649 -1.26477 2477 ft 173 kts 224°
2026-04-23 16:11 43.47228 -1.28075 2552 ft 189 kts 268°
2026-04-23 16:11 43.47151 -1.29882 2487 ft 185 kts 265°
2026-04-23 16:11 43.47085 -1.31610 2490 ft 178 kts 269°
2026-04-23 16:12 43.47052 -1.33309 2493 ft 178 kts 270°
2026-04-23 16:12 43.47031 -1.35017 2434 ft 179 kts 269°
2026-04-23 16:12 43.47010 -1.36764 2232 ft 187 kts 269°
2026-04-23 16:12 43.46989 -1.38552 1957 ft 184 kts 269°
2026-04-23 16:13 43.46970 -1.40268 1744 ft 173 kts 269°
2026-04-23 16:13 43.46932 -1.43584 1266 ft 166 kts 270°
2026-04-23 16:13 43.46915 -1.45103 1097 ft 152 kts 270°
2026-04-23 16:14 43.46900 -1.46482 892 ft 152 kts 267°
2026-04-23 16:14 43.46895 -1.47962 676 ft 158 kts 271°
2026-04-23 16:14 43.46875 -1.49492 474 ft 159 kts 270°
2026-04-23 16:14 43.46851 -1.51001 274 ft 153 kts 267°
2026-04-23 16:15 43.46831 -1.52268 249 ft 103 kts 271°
2026-04-23 16:15 43.46833 -1.52950 255 ft 40 kts 268°
2026-04-23 16:15 43.46833 -1.53072 255 ft 4 kts 278°
2026-04-23 16:15 43.46867 -1.53154 255 ft 11 kts 337°
2026-04-23 16:16 43.46941 -1.53189 256 ft 6 kts 338°
2026-04-23 16:16 43.46988 -1.53205 256 ft 11 kts
2026-04-23 16:16 43.47053 -1.53132 256 ft 9 kts 75°
2026-04-23 16:16 43.47054 -1.53037 255 ft 11 kts 89°
2026-04-23 16:17 43.47061 -1.52954 254 ft 1 kts 43°
2026-04-23 16:17 43.47090 -1.52949 254 ft 8 kts 358°
2026-04-23 16:17 43.47131 -1.52950 254 ft 2 kts 359°
2026-04-23 16:17 43.47135 -1.52950 254 ft 0 kts 359°